Погода в Дарганате

Погода в Дарганате : погода сейчас, прогноз погоды и архив. Всё, что Вы хотите узнать о погоде в Дарганате!

Хотите узнать прогноз погоды в Дарганате? Тогда Вам сюда: Погода в Дарганате

Поиск расширенной информации на нашем сайте:

Другие новости

Новости СМИ2

Главная страница сайта

Новости сайта

03.07.2017

Напоминаем, что на нашем специализированном сайте Метеоцентр.Азия вы можете получить высокодетализированные автоматические прогнозы погоды по пунктам России, СНГ и мира в авиационном формате (включающие направление и скорость ветра, видимость, явления погоды, количество и форму облачности, нижнюю и верхнюю границу облачности).


Погода в Дарганате - сегодня

Время (UTC), дата Ветер
(°,м/с) 
Видим.   Явления Облачность Т
(°С)
Тd
(°С)
f(%) Тe
(°С)
Pmin
(гПа)
dP
(гПа)
Po
(мм)
O2
(г/м3)
Тmin Tmax R s Состояние
почвы
18 16.09.17 320 (СЗ) 20000 м    ясно 
+16.8 +7.4 54 +18  1015.7  0.2  749  283    +30.2       
21 16.09.17 310 (СЗ) 20000 м    ясно 
+14.8 +6.5 58 +15  1015.2  -0.6  749  285           
00 17.09.17 320 (СЗ) 20000 м    ясно 
+12.7 +4.3 57 +13  1015.2  -0.1  749  288           
03 17.09.17 330 (СЗ) 20000 м    ясно 
+15 +5 51 +16  1016.1  749  285           
06 17.09.17 330 (СЗ) 20000 м    ясно 
+26.4 +9 33 +26  1016.3  0.9  750  274  +11.6         
09 17.09.17 340 (С) 20000 м    ясно 
+30.2 +5.9 22 +30  1015.2  -0.9  749  271           
12 17.09.17 320 (СЗ) 20000 м    ясно 
+30.3 +7 23 +30  1014.3  -0.9  749  270           
15 17.09.17 300 (СЗ) 20000 м    ясно 
+22.9 +6.5 35 +23  1015.1  0.4  749  277    +31       
18 17.09.17 320 (СЗ) 20000 м    ясно 
+19.6 +4.5 37 +21  1015.6  0.2  749  281    +31       
21 17.09.17 300 (СЗ) 20000 м    ясно 
+16.1 +6.5 53 +17  1015.8  0.1  749  284           
00 18.09.17 330 (СЗ) 20000 м    ясно 
+14.8 +4.5 50 +16  1015.7  0.2  749  286           
03 18.09.17 330 (СЗ) 20000 м    ясно 
+15.2 +5.6 53 +16  1016.9  1.2  750  285           
06 18.09.17 030 (СВ) 20000 м    ясно 
+28.9 +4.6 21 +29  1016.8  0.7  750  273  +13.3         
09 18.09.17 020 (С) 20000 м    ясно 
+31.2 +4.3 18 +31  1016.2  -0.5  750  271           
12 18.09.17 360 (С) 20000 м    ясно 
+30.6 +7.3 23 +31  1015.6  -0.6  750  270           
15 18.09.17 340 (С) 20000 м    ясно 
+22.1 +6.1 35 +22  1016.4  0.4  750  279    +32.2       
18 18.09.17 330 (СЗ) 20000 м    ясно 
+18 +6.5 47 +19  1017  0.3  750  283    +32.2       
21 18.09.17 330 (СЗ) 20000 м    ясно 
+15 +6.8 58 +16  1016.9  -0.3  750  285           
00 19.09.17 330 (СЗ) 20000 м    ясно 
+14.6 +4.5 51 +15  1016.8  750  286           
03 19.09.17 320 (СЗ) 20000 м    ясно 
+16.4 +5.3 48 +18  1017.6  0.8  751  284           
06 19.09.17 350 (С) 20000 м    ясно 
+29.3 +7.6 26 +29  1017.5  0.6  751  272  +13.5         
09 19.09.17 020 (С) 20000 м    ясно 
+31.8 +5.5 19 +32  1016.5  -0.9  750  270           
12 19.09.17 010 (С) 20000 м    ясно 
+30.8 +7.3 23 +31  1015.6  -0.9  750  270           
15 19.09.17 330 (СЗ) 20000 м    ясно 
+22.4 +7.1 37 +22  1016.3  0.3  750  278    +32.6       
18 19.09.17 320 (СЗ) 20000 м    ясно 
+18.1 +8.4 53 +19  1016.4  -0.2  750  282    +32.6       
Время (UTC), дата Ветер
(°,м/с) 
Видим.   Явления Облачность Т
(°С)
Тd
(°С)
f(%) Тe
(°С)
Pmin
(гПа)
dP
(гПа)
Po
(мм)
O2
(г/м3)
Тmin Tmax R s Состояние
почвы

Для получения пояснительной информации подведите курсор к названию столбца.

ПОГОДА в Дарганате - архив

Всё, что Вы хотите узнать о погоде в Дарганате - удобно и подробно!

Выберите нужную дату (начиная с 1 января 2015* года) и нажмите кнопку "Найти".
Будут отображены архивные сводки погоды по пункту Дарганата, начиная с указанной даты.


Отображать данные в формате CSV (для использования в таблицах Excel)


Внимание! Наш архив погоды предназначен исключительно для личного некоммерческого использования в познавательных целях. Если Вам необходимы официальные справки о состоянии погоды (для производственных, юридических, коммерческих и т.п. целей), обращайтесь в органы Росгидромета.

*Примечание: данная дата относится к архиву по метеостанциям СССР (Россия, СНГ, Балтия).
Архив по метеостанциям Зарубежной Европы и Азии (кроме Китая) хранится 10 дней, по другим регионам земного шара (Китай, Африка, Америка, Австралия, Океания) - 1 день.

Дарганата - район местоположения метеостанции


Название, широта, долгота, высота метеостанции:
Дарганата 40.5°ш. 62.3°д. 142 м над ур. моря [Туркменистан]

Дополнительная информация

В oтличие oт бoльшинства пoгoдных сайтoв мы публикуем пoдрoбную метеoинфoрмацию в детальнoм прoфессиoнальнoм фoрмате.

Характеристики температуры и влажнoсти вoздуха измеряются на высoте 2 м в тени вдали oт зданий и деревьев.
Скoрoсть ветра измеряется на высoте 10 м (на урoвне рoста челoвека скoрoсть ветра ниже в 1.5-2 раза). Если метеoстанция нахoдится в гoрoде или в лесу, тo скoрoсть ветра занижена на 2-4 м/с пo сравнению с oткрытым местoм. Скoрoсть ветра над акватoриями крупных рек и oзёр, а также на вершинах хoлмoв на 2-5 м/с выше, чем в oбычных услoвиях.
Атмoсфернoе давление в разных тoчках местнoсти мoжет значительнo oтличаться oт давления на метеoстанции, в зависимoсти oт услoвий рельефа (при пoдъёме на 10 м давление пoнижается примернo на 1 мм рт.ст.).